Weather in Shuyeretskoye

Russia / Republic of Karelia     64°44′29″N   34°42′10″E
temp.,
°C
wind,
m/s
gust,
m/s
humid.,
%
clouds,
%
prec.,
mm/h
press.,
hPa
HPBL,
m
28 february, sun
sun2800:00−8wsw23953 0.0 101229
03:00−9sw239341 0.0 101125
06:00−8sw239099 0.0 100929
09:00−7sw239298 0.0 101063
12:00−4sw249482 0.0 1010216
15:00−2wsw369475 0.0 1011362
18:00−1w489486 0.0 1011314
21:000w489489 0.0 1011334
1 march, mon
mon100:000wsw51190100 0.0 1009331
03:00−1wsw61393100 0.0 1007405
06:00+2w61595100 0.0 1004703
09:00+2w61590100 0.0 1002603
12:00+2w51296100 0.0 1001441
15:00+2w5139383 0.0 1000684
18:00+1w5138852 0.0 998603
21:000w5129176 0.0 998461
2 march, tue
tue200:00−1w5148294 0.0 996560
03:000wnw8159497 0.8 9961155
06:00−1nw91780100 0.4 997951
09:00−1nnw7148497 0.5 1001967
12:00−2nw5118484 0.0 1005583
15:00−2nw5118392 0.0 1008909
18:00−4nw4118875 0.1 1008461
21:00−6wnw498861 0.1 1010222
3 march, wed
wed300:00−6nw4118629 0.0 1011353
03:00−7nw4128834 0.0 1012336
06:00−8wnw37890 0.0 1012140
09:00−7w499131 0.0 1012239
12:00−4w489057 0.0 1010310
15:00−3wsw498978 0.0 1007372
18:00−3sw41089100 0.0 1002378
21:00−2ssw51196100 2.0 996613
4 march, thu
thu400:00+1w51290100 0.8 991811
03:00−3w6148383 0.8 988577
06:00−6w5138787 0.0 988538
09:00−7nne11179291 0.6 9901012
12:00−6n91491100 1.1 994946
15:00−6nnw61181100 1.2 997898
18:00−9nw498939 0.0 998257
21:00−9nw499142 0.0 998268